| time (UTC) | temp F | wind direction | speed MPH | gust MPH | rain 1hr in | rain 24hr in | rain mn in | humidity % | barometer mb |
| 20260905131555 | 72 | 160 | 3.0 | 7.0 | 0.00 | 0.00 | 0.00 | 28 | 1007.6 |
| 20260905130056 | 72 | 150 | 3.0 | 6.0 | 0.00 | 0.00 | 0.00 | 29 | 1007.5 |
| 20260905124559 | 73 | 151 | 2.0 | 6.0 | 0.00 | 0.00 | 0.00 | 28 | 1007.3 |
| 20260905123103 | 73 | 162 | 4.0 | 7.0 | 0.00 | 0.00 | 0.00 | 28 | 1007.3 |
| 20260905121600 | 73 | 176 | 5.0 | 10.0 | 0.00 | 0.00 | 0.00 | 28 | 1007.3 |
| 20260905120107 | 73 | 157 | 4.0 | 10.0 | 0.00 | 0.00 | 0.00 | 28 | 1007.2 |
| 20260905114609 | 73 | 173 | 5.0 | 8.0 | 0.00 | 0.00 | 0.00 | 28 | 1007.2 |
| 20260905113058 | 74 | 153 | 3.0 | 8.0 | 0.00 | 0.00 | 0.00 | 28 | 1007.4 |
| 20260905111651 | 74 | 146 | 4.0 | 7.0 | 0.00 | 0.00 | 0.00 | 28 | 1007.4 |
| 20260905110055 | 74 | 166 | 3.0 | 6.0 | 0.00 | 0.00 | 0.00 | 28 | 1007.3 |
| 20260905104556 | 74 | 145 | 4.0 | 7.0 | 0.00 | 0.00 | 0.00 | 28 | 1007.3 |
| 20260905103102 | 75 | 144 | 4.0 | 9.0 | 0.00 | 0.00 | 0.00 | 28 | 1007.3 |
| 20260905101556 | 76 | 139 | 4.0 | 8.0 | 0.00 | 0.00 | 0.00 | 27 | 1007.2 |
| 20260905100100 | 76 | 165 | 5.0 | 12.0 | 0.00 | 0.00 | 0.00 | 26 | 1007.2 |
| 20260905094555 | 77 | 142 | 6.0 | 14.0 | 0.00 | 0.00 | 0.00 | 26 | 1007.2 |
| 20260905093110 | 77 | 146 | 8.0 | 12.0 | 0.00 | 0.00 | 0.00 | 26 | 1007.0 |
| 20260905091559 | 77 | 166 | 5.0 | 8.0 | 0.00 | 0.00 | 0.00 | 26 | 1007.1 |
| 20260905090055 | 77 | 162 | 2.0 | 8.0 | 0.00 | 0.00 | 0.00 | 25 | 1007.0 |
| 20260905084558 | 77 | 182 | 4.0 | 10.0 | 0.00 | 0.00 | 0.00 | 25 | 1007.0 |
| 20260905083054 | 78 | 145 | 4.0 | 11.0 | 0.00 | 0.00 | 0.00 | 25 | 1007.0 |
| 20260905081556 | 78 | 173 | 4.0 | 7.0 | 0.00 | 0.00 | 0.00 | 24 | 1007.1 |
| 20260905080055 | 78 | 155 | 4.0 | 7.0 | 0.00 | 0.00 | 0.00 | 24 | 1006.9 |
| 20260905074558 | 79 | 166 | 3.0 | 6.0 | 0.00 | 0.00 | 0.00 | 23 | 1006.8 |
| 20260905073057 | 80 | 178 | 3.0 | 8.0 | 0.00 | 0.00 | 0.00 | 22 | 1006.7 |
| 20260905071557 | 80 | 140 | 6.0 | 11.0 | 0.00 | 0.00 | 0.00 | 21 | 1006.6 |
| 20260905070101 | 80 | 165 | 3.0 | 8.0 | 0.00 | 0.00 | 0.00 | 20 | 1006.5 |
| 20260905070009 | 80 | 138 | 3.0 | 8.0 | 0.00 | 0.00 | 0.00 | 20 | 1006.4 |
| 20260905064616 | 81 | 132 | 3.0 | 8.0 | 0.00 | 0.00 | 0.00 | 19 | 1006.2 |
| 20260905063102 | 81 | 132 | 6.0 | 12.0 | 0.00 | 0.00 | 0.00 | 17 | 1006.0 |
| 20260905061558 | 81 | 149 | 3.0 | 5.0 | 0.00 | 0.00 | 0.00 | 16 | 1005.8 |
| 20260905060058 | 81 | 150 | 3.0 | 7.0 | 0.00 | 0.00 | 0.00 | 16 | 1005.8 |
| 20260905054558 | 81 | 136 | 2.0 | 5.0 | 0.00 | 0.00 | 0.00 | 16 | 1005.8 |
| 20260905053100 | 82 | 146 | 2.0 | 5.0 | 0.00 | 0.00 | 0.00 | 15 | 1005.6 |
| 20260905051558 | 82 | 196 | 2.0 | 5.0 | 0.00 | 0.00 | 0.00 | 16 | 1005.6 |
| 20260905050059 | 82 | 136 | 3.0 | 6.0 | 0.00 | 0.00 | 0.00 | 16 | 1005.5 |
| 20260905044559 | 82 | 148 | 2.0 | 5.0 | 0.00 | 0.00 | 0.00 | 16 | 1005.4 |
| 20260905043105 | 83 | 155 | 2.0 | 3.0 | 0.00 | 0.00 | 0.00 | 17 | 1005.4 |
| 20260905041601 | 83 | 176 | 2.0 | 5.0 | 0.00 | 0.00 | 0.00 | 16 | 1005.2 |
| 20260905040057 | 84 | 154 | 2.0 | 5.0 | 0.00 | 0.00 | 0.00 | 15 | 1005.1 |
| 20260905034605 | 84 | 145 | 2.0 | 5.0 | 0.00 | 0.00 | 0.00 | 15 | 1005.1 |
| 20260905033057 | 85 | 151 | 2.0 | 4.0 | 0.00 | 0.00 | 0.00 | 15 | 1005.0 |
| 20260905031558 | 85 | 134 | 3.0 | 6.0 | 0.00 | 0.00 | 0.00 | 15 | 1004.8 |
| 20260905030116 | 86 | 146 | 2.0 | 6.0 | 0.00 | 0.00 | 0.00 | 14 | 1004.6 |
| 20260905024604 | 87 | 200 | 3.0 | 7.0 | 0.00 | 0.00 | 0.00 | 14 | 1004.4 |
| 20260905023057 | 88 | 215 | 2.0 | 7.0 | 0.00 | 0.00 | 0.00 | 14 | 1004.2 |
| 20260905021558 | 89 | 194 | 2.0 | 11.0 | 0.00 | 0.00 | 0.00 | 13 | 1004.2 |
| 20260905014600 | 90 | 195 | 2.0 | 9.0 | 0.00 | 0.00 | 0.00 | 12 | 1004.1 |
| 20260905013058 | 92 | 225 | 5.0 | 10.0 | 0.00 | 0.00 | 0.00 | 12 | 1004.1 |
| 20260905011558 | 93 | 223 | 6.0 | 17.0 | 0.00 | 0.00 | 0.00 | 10 | 1004.0 |
| 20260905010058 | 94 | 152 | 4.0 | 11.0 | 0.00 | 0.00 | 0.00 | 11 | 1004.0 |
| 20260905004559 | 94 | 191 | 8.0 | 19.0 | 0.00 | 0.00 | 0.00 | 11 | 1003.9 |
| 20260905003059 | 94 | 213 | 9.0 | 15.0 | 0.00 | 0.00 | 0.00 | 10 | 1003.8 |
| 20260905001607 | 96 | 216 | 5.0 | 17.0 | 0.00 | 0.00 | 0.00 | 10 | 1003.9 |
| 20260905000103 | 96 | 248 | 5.0 | 14.0 | 0.00 | 0.00 | 0.00 | 9 | 1003.9 |
| 20260904234606 | 96 | 211 | 7.0 | 15.0 | 0.00 | 0.00 | 0.00 | 9 | 1003.9 |
| 20260904233058 | 97 | 196 | 7.0 | 15.0 | 0.00 | 0.00 | 0.00 | 9 | 1003.9 |
| 20260904231602 | 97 | 166 | 6.0 | 17.0 | 0.00 | 0.00 | 0.00 | 9 | 1004.0 |
| 20260904230057 | 98 | 233 | 5.0 | 15.0 | 0.00 | 0.00 | 0.00 | 10 | 1003.9 |
| 20260904224558 | 98 | 120 | 8.0 | 18.0 | 0.00 | 0.00 | 0.00 | 10 | 1004.0 |
| 20260904223059 | 98 | 193 | 7.0 | 12.0 | 0.00 | 0.00 | 0.00 | 9 | 1004.3 |
| 20260904221603 | 98 | 171 | 9.0 | 16.0 | 0.00 | 0.00 | 0.00 | 9 | 1004.3 |
| 20260904220109 | 98 | 178 | 6.0 | 17.0 | 0.00 | 0.00 | 0.00 | 9 | 1004.4 |
| 20260904214557 | 98 | 156 | 7.0 | 21.0 | 0.00 | 0.00 | 0.00 | 11 | 1004.6 |
| 20260904213101 | 97 | 167 | 13.0 | 19.0 | 0.00 | 0.00 | 0.00 | 10 | 1004.4 |
| 20260904211600 | 98 | 187 | 6.0 | 19.0 | 0.00 | 0.00 | 0.00 | 10 | 1004.9 |
| 20260904204557 | 97 | 157 | 7.0 | 18.0 | 0.00 | 0.00 | 0.00 | 10 | 1005.0 |
| 20260904203056 | 97 | 172 | 6.0 | 19.0 | 0.00 | 0.00 | 0.00 | 10 | 1005.2 |
| 20260904201557 | 96 | 257 | 3.0 | 14.0 | 0.00 | 0.00 | 0.00 | 11 | 1005.1 |
| 20260904200121 | 96 | 204 | 4.0 | 12.0 | 0.00 | 0.00 | 0.00 | 11 | 1005.5 |
| 20260904194634 | 95 | 232 | 6.0 | 16.0 | 0.00 | 0.00 | 0.00 | 12 | 1005.6 |
| 20260904193059 | 94 | 190 | 2.0 | 10.0 | 0.00 | 0.00 | 0.00 | 14 | 1005.9 |
| 20260904191614 | 93 | 245 | 5.0 | 12.0 | 0.00 | 0.00 | 0.00 | 14 | 1006.3 |
| 20260904190058 | 92 | 184 | 5.0 | 12.0 | 0.00 | 0.00 | 0.00 | 15 | 1006.4 |
| 20260904184608 | 91 | 202 | 4.0 | 12.0 | 0.00 | 0.00 | 0.00 | 16 | 1006.6 |
| 20260904183057 | 90 | 198 | 8.0 | 17.0 | 0.00 | 0.00 | 0.00 | 16 | 1006.7 |
| 20260904181558 | 90 | 221 | 4.0 | 10.0 | 0.00 | 0.00 | 0.00 | 17 | 1006.8 |
| 20260904180058 | 89 | 253 | 6.0 | 12.0 | 0.00 | 0.00 | 0.00 | 17 | 1007.0 |
| 20260904174559 | 88 | 221 | 6.0 | 14.0 | 0.00 | 0.00 | 0.00 | 18 | 1006.9 |
| 20260904173106 | 87 | 225 | 6.0 | 13.0 | 0.00 | 0.00 | 0.00 | 19 | 1007.0 |
| 20260904171558 | 86 | 240 | 7.0 | 14.0 | 0.00 | 0.00 | 0.00 | 20 | 1007.0 |
| 20260904170057 | 84 | 202 | 4.0 | 12.0 | 0.00 | 0.00 | 0.00 | 21 | 1007.0 |
| 20260904164559 | 84 | 204 | 6.0 | 14.0 | 0.00 | 0.00 | 0.00 | 21 | 1006.9 |
| 20260904163056 | 83 | 232 | 8.0 | 15.0 | 0.00 | 0.00 | 0.00 | 22 | 1006.8 |
| 20260904161557 | 81 | 153 | 6.0 | 14.0 | 0.00 | 0.00 | 0.00 | 24 | 1006.9 |
| 20260904160057 | 80 | 169 | 8.0 | 17.0 | 0.00 | 0.00 | 0.00 | 25 | 1006.7 |
| 20260904154611 | 80 | 154 | 5.0 | 14.0 | 0.00 | 0.00 | 0.00 | 26 | 1006.7 |
| 20260904153056 | 79 | 171 | 8.0 | 16.0 | 0.00 | 0.00 | 0.00 | 27 | 1006.6 |
| 20260904151608 | 78 | 193 | 7.0 | 13.0 | 0.00 | 0.00 | 0.00 | 28 | 1006.6 |
| 20260904150057 | 77 | 167 | 9.0 | 13.0 | 0.00 | 0.00 | 0.00 | 29 | 1006.5 |
| 20260904144557 | 76 | 174 | 8.0 | 13.0 | 0.00 | 0.00 | 0.00 | 29 | 1006.2 |
| 20260904143056 | 75 | 104 | 6.0 | 16.0 | 0.00 | 0.00 | 0.00 | 30 | 1006.1 |
| 20260904141621 | 74 | 170 | 8.0 | 13.0 | 0.00 | 0.00 | 0.00 | 31 | 1006.0 |
| 20260904140107 | 73 | 222 | 5.0 | 12.0 | 0.00 | 0.00 | 0.00 | 32 | 1005.7 |
| 20260904134607 | 73 | 128 | 5.0 | 10.0 | 0.00 | 0.00 | 0.00 | 32 | 1005.5 |
| 20260904133110 | 73 | 163 | 5.0 | 11.0 | 0.00 | 0.00 | 0.00 | 33 | 1005.4 |